This demonstration page uses our WeatherBlox Daily Observations layout. Learn more.

36.17497, -115.13722

Hourly Observations for September 7, 2019

Temp ( °F °C ) Dew Point ( °F °C ) Humidity (%) Winds ( mph kmh ) Pressure ( in mb ) Visibility ( mi km ) Precip ( " mm )
12:53 am 00:53 Clear 89 31.7 50 10 26 26 WSW 3 6 29.88 1012 10 16.09344 0 0
1:53 am 01:53 Clear 87 30.6 49 9.4 27 27 NNW 5 7 29.85 1011 10 16.09344 0 0
2:53 am 02:53 Clear 84 28.9 47 8.3 27 27 Calm 29.85 1011 10 16.09344 0 0
3:53 am 03:53 Clear 84 28.9 48 8.9 29 29 Calm 29.85 1011 10 16.09344 0 0
4:53 am 04:53 Clear 82 27.8 49 9.4 32 32 Calm 29.85 1011 10 16.09344 0 0
5:53 am 05:53 Clear 83 28.3 50 10 32 32 Calm 29.88 1012 10 16.09344 0 0
6:53 am 06:53 Sunny 81 27.2 51 10.6 35 35 Calm 29.91 1013 10 16.09344 0 0
7:53 am 07:53 Sunny 86 30 49 9.4 28 28 WSW 6 9 29.91 1013 10 16.09344 0 0
8:53 am 08:53 Sunny 89 31.7 49 9.4 25 25 N 7 11 29.91 1013 10 16.09344 0 0
9:53 am 09:53 Sunny 93 33.9 49 9.4 22 22 VRB 3 6 29.88 1012 10 16.09344 0 0
10:53 am 10:53 Sunny 96 35.6 49 9.4 20 20 ENE 9 15 29.88 1012 10 16.09344 0 0
11:53 am 11:53 Sunny 98 36.7 48 8.9 18 18 SE 8 13 29.85 1011 10 16.09344 0 0
12:53 pm 12:53 Sunny 101 38.3 47 8.3 16 16 SSE 14 22 29.83 1010 10 16.09344 0 0
1:53 pm 13:53 Sunny 103 39.4 47 8.3 15 15 SE 17 28 29.77 1008 10 16.09344 0 0
2:53 pm 14:53 Sunny 102 38.9 47 8.3 15 15 S 12 19 29.77 1008 10 16.09344 0 0
3:53 pm 15:53 Sunny 102 38.9 47 8.3 15 15 VRB 6 9 29.71 1006 10 16.09344 0 0
4:53 pm 16:53 Sunny 103 39.4 44 6.7 13 13 SW 9 15 29.68 1005 10 16.09344 0 0
5:53 pm 17:53 Sunny 102 38.9 41 5 12 12 SW 15 24 29.68 1005 10 16.09344 0 0
6:53 pm 18:53 Sunny 99 37.2 39 3.9 12 12 SW 15 24 29.68 1005 10 16.09344 0 0
7:53 pm 19:53 Clear 96 35.6 38 3.3 13 13 SSW 14 22 29.68 1005 10 16.09344 0 0
8:53 pm 20:53 Clear 94 34.4 37 2.8 14 14 S 12 19 29.68 1005 10 16.09344 0 0
9:53 pm 21:53 Clear 93 33.9 39 3.9 15 15 S 10 17 29.68 1005 10 16.09344 0 0
10:53 pm 22:53 Clear 92 33.3 39 3.9 16 16 SW 18 30 29.68 1005 10 16.09344 0 0
11:53 pm 23:53 Clear 89 31.7 34 1.1 14 14 SSW 10 17 29.68 1005 10 16.09344 0 0

Powered by AerisWeather